Location: ??????
(30.5519°N, 47.7720°E)
Time: 17:40:18
(UTC+00:00)

Cosmos 1455 - Pass Details

Date: 24 January 2021
Orbit: 499 x 520 km, 82.5° (Epoch: 01 March)

Event Time Altitude Azimuth Distance (km) Brightness Sun altitude
Rises 14:42:54 0° 3° (N) 2,631 5.6 -5.8°
Reaches altitude 10° 14:45:08 10° 12° (NNE) 1,744 4.6 -6.3°
Maximum altitude 14:48:43 38° 81° (E) 803 2.7 -7.0°
Drops below altitude 10° 14:52:18 10° 151° (SSE) 1,743 4.8 -7.7°
Sets 14:54:32 0° 159° (SSE) 2,628 5.8 -8.2°
